Regional Weather Roundup
Issued by NWS Jackson, KY

Home | Current Version | Previous Version | Text Only | Print | Product List | Glossary Off
Versions: 1 2 3 4 5 6 7 8 9 10 11 12 13 14 15 16 17 18 19 20 21 22 23 24 25 26 27 28 29 30 31 32 33 34 35 36 37 38 39 40 41 42 43 44 45 46 47 48 49 50

000
ASUS43 KJKL 210510
RWRJKL

EAST KENTUCKY HOURLY WEATHER ROUNDUP
NATIONAL WEATHER SERVICE JACKSON KY
100 AM EDT SUN SEP 21 2014

NOTE: "FAIR" INDICATES FEW OR NO CLOUDS BELOW 12,000 FEET WITH
NO SIGNIFICANT WEATHER AND/OR OBSTRUCTIONS TO VISIBILITY.

* THESE REPORTS ARE NOT UNDER NWS QUALITY CONTROL AND MAY NOT
  REPORT WEATHER SUCH AS PRECIPITATION AND FOG.

KYZ079-080-083-085-087-088-110-112-115-119-120-210600
...EASTERN KENTUCKY...

CITY           SKY/WX    TMP DP  RH WIND       PRES   REMARKS
JACKSON        CLEAR     66  62  87 CALM      30.01F
LONDON         CLEAR     64  61  90 CALM      30.02F FOG
SOMERSET*      PTCLDY    64  64 100 CALM      30.03S
MONTICELLO*    CLEAR     62  61  97 CALM      30.03F FOG
WILLIAMSBURG*  CLEAR     63  63 100 SE6       30.03
MIDDLESBORO*   CLEAR     60  59  97 CALM      30.06F
HARLAN APT*    CLOUDY    61  61 100 MISG      30.06F
HAZARD APT*    CLEAR     64  64 100 CALM      30.02
BLACK MTN*       N/A     61  54  77 SW5         N/A
PIKEVILLE APT* CLEAR     64  63  94 CALM      30.02F
BIG SANDY*     CLEAR     67  65  92 SW3       30.01F
MOREHEAD APT*  CLEAR     66  64  94 CALM      30.00F
$$

KYZ035-036-041-042-044-050-067-078-099-210600
...CENTRAL KENTUCKY...

CITY           SKY/WX    TMP DP  RH WIND       PRES   REMARKS
MT STERLING*   PTCLDY    66  64  94 SW5       30.01R
FLEMING/MASON* CLEAR     68  63  83 S7        29.97F
DANVILLE*      CLEAR     64  63  94 CALM      30.01S
RICHMOND*      CLEAR     70  63  78 SW6       29.99F
LEXINGTON      PTCLDY    71  64  78 S9        29.98F
FRANKFORT      PTCLDY    69  64  84 SW7       29.97S
$$

KYZ091>093-OHZ055-061-077-WVZ005-015-034-035-042-210600
...SOUTHERN OHIO/WEST VIRGINIA...

CITY           SKY/WX    TMP DP  RH WIND       PRES   REMARKS
COVINGTON      CLOUDY    71  64  78 S8        29.93F
COLUMBUS       CLOUDY    74  62  66 SW9       29.90F
DAYTON         CLOUDY    72  65  78 SW13      29.90F
WILMINGTON     CLOUDY    68  62  81 S10       29.92F
HUNTINGTON     CLEAR     65  64  97 SW3       29.96F
CHARLESTON     CLEAR     64  64 100 CALM      29.98F
PINEVILLE*     CLEAR     62  62 100 MISG      30.10F FOG
BECKLEY        CLEAR     62  54  74 SE7       30.08F
BLUEFIELD      PTCLDY    64  53  67 S3        30.11F
$$

VAZ002-007-008-TNZ017-027-036-066-071-210600
...SOUTHWEST VIRGINIA/EAST TENNESSEE...

CITY           SKY/WX    TMP DP  RH WIND       PRES   REMARKS
WISE*          CLEAR     59  59 100 S3        30.10F
JONESVILLE*    CLEAR     59  59 100 CALM      30.08F
ABINGDON*      CLEAR     61  58  90 CALM      30.09F
BRISTOL        CLEAR     60  55  83 CALM      30.07F
KNOXVILLE      CLEAR     66  61  84 SW5       30.03F
OAK RIDGE      CLEAR     66  63  90 CALM      30.05F
CROSSVILLE     CLEAR     67  60  78 S3        30.08F
NASHVILLE      CLEAR     69  66  90 S5        30.02F
$$

...KEY TO REMARKS...
VSB - VISIBILITY IN MILES
WCI - WIND CHILL INDEX
HX  - HEAT INDEX

$$



USA.gov is the U.S. government's official web portal to all federal, state and local government web resources and services.